Location: Street
(51.1247°N, 2.7429°W)
Time: 16:25:24
(UTC+00:00)

SR - Pass Details

Date: 30 November 2020
Orbit: 575 x 880 km, 66.7° (Epoch: 26 January)

Event Time Altitude Azimuth Distance (km) Brightness Sun altitude
Rises 20:25:49 0° 263° (W) 2,877 ? -39.5°
Reaches altitude 10° 20:28:25 10° 279° (W) 2,017 ? -39.9°
Enters shadow 20:28:46 12° 282° (WNW) 1,916 ? -39.9°
Maximum altitude 20:32:02 23° 331° (NNW) 1,419 - -40.4°
Drops below altitude 10° 20:35:53 10° 24° (NNE) 2,166 - -41.0°
Sets 20:38:49 0° 39° (NE) 3,150 - -41.4°
